GLOBALSTAR M027 [-]

Last updated on July 6, 2021, 3:36 p.m. UTC

1 25884U 99043B   21186.90081582 -.00000087  00000-0 -87052-3 0  9995
2 25884  52.0234  72.0092 0021006 179.6171 180.4641 11.04360762981884
UTC
Height (km)
Latitude
Longitude
Inclination
Orbital Period
UTC large
Height (km)
Speed (km/s)
/
Latitude / Longitude
Inclination (degrees)
Orbital Period (minutes)
Azimuth
Elevation
Range (km)
Doppler Factor
iOS Compass Heading
iOS Angle